SCP
0 1 1 0 0 0 1 1 0 0 0 0 0 0 0 0 0 0 0 0 0 0
0 0 0 0 1 1 0 0 0 0 0 0 0 0 0 0 0 0 0 0 0 0
0 0 0 0 0 0 0 0 0 0 0 0 0 0 0 0 0 0 0 0 -0 -0
0 0 0 0 0 0 0 0 0 0 0 0 0 0 0 0 0 0 0 0 -0 0
0 0 0 0 0 0 0 0 0 0 0 0 0 0 0 0 0 0 -0 -0 0 0
0 0 0 0 0 0 0 0 0 0 0 0 0 0 0 0 0 0 -0 0 0 0
0 0 0 0 0 0 0 0 0 0 0 0 0 0 0 0 0 -0 -0 0 0 0
0 0 0 0 0 0 0 0 0 0 0 -0 -0 0 0 -0 0 -0 0 0 -0 -0
-0 -0 0 0 0 0 0 0 0 0 0 -0 0 0 0 -0 -0 -0 -0 -0 0 -0
-0 -0 -0 -0 -0 -0 0 -0 0 0 -0 0 0 0 -0 -0 0 0 -0 -0 -0 -0
-0 -0 -0 0 0 -0 0 0 0 0 0 0 -0 0 -0 0 -0 -0 -0 -0 -0 -0
-0 -0 0 -0 0 0 0 0 0 0 0 -0 -0 -0 0 0 -0 0 -0 -0 -0 0
-0 -0 0 0 0 -0 0 0 -0 -0 -0 0 0 -0 0 0 0 0 0 0 0 0
-0 0 0 0 0 -0 0 0 0 -0 0 -0 -0 -0 0 0 -0 0 0 0 0 0
Wind_Speed_500mb
27 28 30 33 40 36 32 36 35 33 30 27 24 22 18 17 17 15 16 16 13 15
34 37 43 41 36 39 38 35 32 24 23 22 20 19 16 17 17 17 14 15 16 15
43 40 42 42 41 37 32 25 22 21 21 19 18 17 16 16 16 16 14 14 17 16
43 42 39 36 34 29 23 20 21 22 22 20 17 15 13 14 15 15 15 15 16 15
42 39 36 33 28 25 23 25 26 26 21 15 11 12 15 18 21 19 20 19 18 19
36 33 30 29 29 28 27 30 28 22 13 8 7 12 15 18 19 15 24 23 20 20
30 28 29 30 30 30 27 27 24 15 9 3 8 8 4 4 11 12 20 21 21 22
32 29 29 30 30 31 31 26 19 14 5 2 1 1 4 1 5 12 17 21 20 22
28 26 30 27 27 32 31 22 19 13 7 6 7 6 5 1 3 9 16 21 27 25
22 24 30 25 34 35 25 21 17 9 7 8 8 7 7 2 4 10 15 20 24 26
26 29 25 26 35 27 21 18 15 7 4 8 9 7 7 5 8 16 16 16 17 19
28 29 28 31 32 22 20 17 14 5 1 8 8 10 11 9 12 21 19 21 24 18
26 26 24 21 22 22 19 17 13 8 1 6 5 9 12 11 17 20 24 20 13 15
22 24 22 21 16 19 18 18 15 10 2 3 5 7 10 10 11 21 21 29 34 30
Wind_Direction_500mb
155 160 160 164 156 156 157 160 172 186 198 213 230 221 214 212 213 229 237 245 253 255
139 143 145 142 147 146 147 164 175 189 208 215 202 198 210 211 218 234 238 245 243 242
134 139 139 140 143 146 154 165 186 199 193 186 187 192 198 211 224 244 251 243 235 227
137 141 143 142 144 150 163 178 178 173 168 170 177 199 219 234 247 250 246 234 226 213
142 143 143 145 152 160 165 163 160 156 157 165 212 247 260 255 256 252 235 225 220 213
141 145 151 157 158 155 154 152 152 155 167 193 240 275 273 261 248 240 214 217 215 211
142 148 153 155 155 154 153 158 154 162 157 238 286 286 275 254 209 211 208 209 208 204
132 133 147 151 157 156 151 149 151 149 103 34 52 338 46 171 186 188 195 196 194 200
144 141 150 150 160 158 153 152 150 130 88 79 53 56 48 290 185 196 196 195 196 197
147 153 153 148 150 151 152 147 153 126 86 63 46 43 36 74 156 174 183 177 181 181
146 146 158 158 157 153 150 154 165 129 79 37 24 34 49 95 147 150 151 160 167 168
149 148 142 143 158 157 160 170 167 165 28 19 25 64 71 99 145 148 143 142 146 160
157 159 163 166 168 172 169 184 178 206 22 25 52 79 87 97 145 148 147 148 154 154
151 164 168 177 176 186 186 193 194 205 148 68 83 101 98 92 148 154 147 136 126 119
Wind_Speed_850mb
27 28 30 33 40 36 32 36 35 33 30 27 24 22 18 17 17 15 16 16 13 15
34 37 43 41 36 39 38 35 32 24 23 22 20 19 16 17 17 17 14 15 16 15
43 40 42 42 41 37 32 25 22 21 21 19 18 17 16 16 16 16 14 14 17 16
43 42 39 36 34 29 23 20 21 22 22 20 17 15 13 14 15 15 15 15 16 15
42 39 36 33 28 25 23 25 26 26 21 15 11 12 15 18 21 19 20 19 18 19
36 33 30 29 29 28 27 30 28 22 13 8 7 12 15 18 19 15 24 23 20 20
30 28 29 30 30 30 27 27 24 15 9 3 8 8 4 4 11 12 20 21 21 22
32 29 29 30 30 31 31 26 19 14 5 2 1 1 4 1 5 12 17 21 20 22
28 26 30 27 27 32 31 22 19 13 7 6 7 6 5 1 3 9 16 21 27 25
22 24 30 25 34 35 25 21 17 9 7 8 8 7 7 2 4 10 15 20 24 26
26 29 25 26 35 27 21 18 15 7 4 8 9 7 7 5 8 16 16 16 17 19
28 29 28 31 32 22 20 17 14 5 1 8 8 10 11 9 12 21 19 21 24 18
26 26 24 21 22 22 19 17 13 8 1 6 5 9 12 11 17 20 24 20 13 15
22 24 22 21 16 19 18 18 15 10 2 3 5 7 10 10 11 21 21 29 34 30
Wind_Direction_850mb
155 160 160 164 156 156 157 160 172 186 198 213 230 221 214 212 213 229 237 245 253 255
139 143 145 142 147 146 147 164 175 189 208 215 202 198 210 211 218 234 238 245 243 242
134 139 139 140 143 146 154 165 186 199 193 186 187 192 198 211 224 244 251 243 235 227
137 141 143 142 144 150 163 178 178 173 168 170 177 199 219 234 247 250 246 234 226 213
142 143 143 145 152 160 165 163 160 156 157 165 212 247 260 255 256 252 235 225 220 213
141 145 151 157 158 155 154 152 152 155 167 193 240 275 273 261 248 240 214 217 215 211
142 148 153 155 155 154 153 158 154 162 157 238 286 286 275 254 209 211 208 209 208 204
132 133 147 151 157 156 151 149 151 149 103 34 52 338 46 171 186 188 195 196 194 200
144 141 150 150 160 158 153 152 150 130 88 79 53 56 48 290 185 196 196 195 196 197
147 153 153 148 150 151 152 147 153 126 86 63 46 43 36 74 156 174 183 177 181 181
146 146 158 158 157 153 150 154 165 129 79 37 24 34 49 95 147 150 151 160 167 168
149 148 142 143 158 157 160 170 167 165 28 19 25 64 71 99 145 148 143 142 146 160
157 159 163 166 168 172 169 184 178 206 22 25 52 79 87 97 145 148 147 148 154 154
151 164 168 177 176 186 186 193 194 205 148 68 83 101 98 92 148 154 147 136 126 119